Weather History for Big Piney, WY

Change the Weather History Date:

Monday, August 5, 2013

  Actual Average Record
Temperature  
Mean Temperature 62 °F 62 °F  
Max Temperature 84 °F 81 °F 93 °F (2003)
Min Temperature 40 °F 43 °F 28 °F (1980)
Degree Days  
Heating Degree Days 3 4  
Month to date heating degree days 7 16  
Since 1 June heating degree days 248 438  
Since 1 July heating degree days 31 133  
Cooling Degree Days 0 1  
Month to date cooling degree days 0 5  
Year to date cooling degree days 77 29  
Since 1 June cooling degree days 77 29  
Growing Degree Days 12 (Base 50)    
Moisture  
Dew Point 28 °F    
Average Humidity 33    
Maximum Humidity 55    
Minimum Humidity 10    
Precipitation  
Precipitation T in 0.02 in 2.48 in (1997)
Month to date precipitation 0.05 0.11  
Year to date precipitation 2.64 4.08  
Sea Level Pressure  
Sea Level Pressure 29.96 in    
Wind  
Wind Speed 6 mph (NW)    
Max Wind Speed 30 mph    
Max Gust Speed 38 mph    
Visibility 10 miles    
Events      
T = Trace of Precipitation, MM = Missing Value Source: NWS Daily Summary

Daily Weather History Graph

Daily Weather History Graph

Search for Another Location

Airport:

Trip Planner

Search our weather history database for the weather conditions in past years. The results will help you decide how hot, cold, wet, or windy it might be!

Date:

Astronomy

Aug. 05, 2013 Rise Set
Actual Time 6:16 AM MDT 8:35 PM MDT
Civil Twilight 5:45 AM MDT 9:06 PM MDT
Nautical Twilight 5:06 AM MDT 9:45 PM MDT
Astronomical Twilight 4:23 AM MDT 10:28 PM MDT
Moon 5:15 AM MDT (8/5) 7:36 PM MDT (8/5)
Length of Visible Light 15h 21m
Length of Day
14h 18m
Waning Crescent, 1% of the Moon is Illuminated
Aug 5
Waning Crescent
Aug 6
New
Aug 14
First Quarter
Aug 20
Full
Aug 28
Last Quarter

Hourly Weather History & Observations

Time (MDT) Temp. Windchill Dew Point Humidity Pressure Visibility Wind Dir Wind Speed Gust Speed Precip Events Conditions
12:53 AM 52.0 °F - 28.0 °F 40% 29.96 in 10.0 mi NNW 8.1 mph - N/A   Clear
1:53 AM 52.0 °F - 27.0 °F 38% 29.96 in 10.0 mi ENE 8.1 mph - N/A   Clear
2:53 AM 50.0 °F - 27.0 °F 41% 29.96 in 10.0 mi NNE 4.6 mph - N/A   Clear
3:53 AM 48.9 °F - 27.0 °F 43% 29.96 in 10.0 mi East 3.5 mph - N/A   Clear
4:53 AM 45.0 °F 42.6 °F 28.0 °F 52% 29.99 in 10.0 mi South 4.6 mph - N/A   Clear
5:53 AM 41.0 °F 36.4 °F 26.1 °F 55% 30.01 in 10.0 mi NNE 6.9 mph - N/A   Clear
6:53 AM 43.0 °F 38.8 °F 27.0 °F 53% 30.02 in 10.0 mi NE 6.9 mph - N/A   Clear
7:53 AM 51.1 °F - 30.0 °F 44% 30.02 in 10.0 mi Calm Calm - N/A   Clear
8:53 AM 60.1 °F - 28.0 °F 30% 30.01 in 10.0 mi Calm Calm - N/A   Clear
9:53 AM 68.0 °F - 28.0 °F 22% 29.99 in 10.0 mi Variable 3.5 mph - N/A   Clear
10:53 AM 73.0 °F - 30.9 °F 21% 29.98 in 10.0 mi Variable 6.9 mph - N/A   Clear
11:53 AM 80.1 °F - 19.0 °F 10% 29.94 in 10.0 mi Variable 6.9 mph - N/A   Clear
12:53 PM 82.9 °F - 21.9 °F 11% 29.92 in 10.0 mi SSW 8.1 mph - N/A   Clear
1:53 PM 82.9 °F - 24.1 °F 12% 29.90 in 10.0 mi WSW 5.8 mph - N/A   Clear
2:53 PM 80.1 °F - 33.1 °F 18% 29.92 in 10.0 mi WNW 19.6 mph 26.5 mph N/A   Clear
3:08 PM 80.6 °F - 24.8 °F 13% 30.20 in 10.0 mi WNW 11.5 mph 24.2 mph N/A   Clear
3:53 PM 78.1 °F - 28.9 °F 17% 29.92 in 10.0 mi West 5.8 mph - N/A   Mostly Cloudy
4:53 PM 79.0 °F - 27.0 °F 15% 29.91 in 10.0 mi SW 9.2 mph 18.4 mph N/A   Partly Cloudy
5:53 PM 78.1 °F - 27.0 °F 15% 29.92 in 10.0 mi NNW 5.8 mph - N/A   Scattered Clouds
6:53 PM 73.0 °F - 27.0 °F 18% 30.00 in 10.0 mi NNW 21.9 mph 29.9 mph 0.00 in   Overcast
7:53 PM 73.9 °F - 28.0 °F 18% 29.92 in 10.0 mi NNW 3.5 mph - N/A   Partly Cloudy
8:53 PM 63.0 °F - 35.1 °F 35% 29.92 in 10.0 mi SSW 5.8 mph - N/A   Clear
9:53 PM 59.0 °F - 33.1 °F 38% 29.92 in 10.0 mi Calm Calm - N/A   Clear
10:53 PM 53.1 °F - 32.0 °F 45% 29.92 in 10.0 mi NW 4.6 mph - N/A   Clear
11:53 PM 53.1 °F - 26.1 °F 35% 29.89 in 10.0 mi North 5.8 mph - N/A   Clear